Regional Weather Roundup
Issued by NWS

Home | Current Version | Previous Version | Graphics & Text | Print | Product List | Glossary On
Versions: 1 2 3 4 5 6 7 8 9 10 11 12 13 14 15 16 17 18 19 20 21 22 23 24 25 26 27 28
000
ASUS45 KPSR 200610
RWRAZ

ARIZONA HOURLY REGIONAL WEATHER ROUNDUP
NATIONAL WEATHER SERVICE PHOENIX AZ
1100 PM MST MON FEB 19 2018

NOTE: FAIR INDICATES FEW OR NO CLOUDS BELOW 12,000 FEET WITH NO
SIGNIFICANT WEATHER AND/OR OBSTRUCTIONS TO VISIBILITY.

AZZ001>003-036-200700-
NORTHWEST ARIZONA

CITY           SKY/WX    TMP DP  RH WIND       PRES   REMARKS
BULLHEAD CITY  CLEAR     43  16  33 CALM      29.92R
KINGMAN        CLEAR     28  16  60 SE8       29.87R WCI  20
6HR MIN TEMP:  28; 6HR MAX TEMP:  39; 6HR PCP: TRACE;

$$

AZZ004>008-015-016-018-200700-
NORTH CENTRAL ARIZONA

CITY           SKY/WX    TMP DP  RH WIND       PRES   REMARKS
GRAND CANYON   FLURRIES  15  15 100 SW7       29.78R WCI   5
6HR MIN TEMP:  17; 6HR MAX TEMP:  25; 6HR PCP:  0.02;

WILLIAMS       MOCLDY    18  12  79 SW5       29.76S WCI  11
PRESCOTT       PTCLDY    23  11  60 NE5       29.84R WCI  17
6HR MIN TEMP:  21; 6HR MAX TEMP:  35; 6HR PCP: TRACE;

FLAGSTAFF      CLOUDY    19   9  65 W12       29.78R WCI   7
6HR MIN TEMP:  18; 6HR MAX TEMP:  23; 6HR PCP: TRACE;

PAYSON         CLOUDY    30   5  34 CALM      29.84R
PAGE           PTCLDY    33  -2  22 W5        29.76R WCI  29
6HR MIN TEMP:  33; 6HR MAX TEMP:  38;

$$

AZZ009>014-017-200700-
NORTHEAST ARIZONA

CITY           SKY/WX    TMP DP  RH WIND       PRES   REMARKS
WINSLOW        CLEAR     26   4  38 SW5       29.84R WCI  20
6HR MIN TEMP:  25; 6HR MAX TEMP:  38; 6HR PCP: TRACE;

SAINT JOHNS    LGT SNOW  27  26  96 NW16      29.79S FOG     WCI  15
6HR MIN TEMP:  28; 6HR MAX TEMP:  49; 6HR PCP:  0.03;

WINDOW ROCK    LGT SNOW  23  14  68 SW10G21   29.77R WCI  12
6HR MIN TEMP:  23; 6HR MAX TEMP:  40; 6HR PCP:  0.13;

SHOW LOW       LGT SNOW  27  25  93 W13       29.82R WCI  16
$$

AZZ540-542>544-546-548-200700-
GREATER PHOENIX AREA

CITY           SKY/WX    TMP DP  RH WIND       PRES   REMARKS
PHOENIX        MOCLDY    52   5  15 W8        29.88R
6HR MIN TEMP:  52; 6HR MAX TEMP:  61;

BUCKEYE        CLOUDY    43  10  26 NW3       29.91R
LUKE AFB       CLEAR     47  12  24 S5        29.88R
6HR MIN TEMP:  47; 6HR MAX TEMP:  58;

DEER VALLEY    CLEAR     46   8  21 S3        29.88R
6HR MIN TEMP:  44; 6HR MAX TEMP:  56; 6HR PCP: TRACE;

SCOTTSDALE     CLOUDY    48  12  23 CALM      29.90R
6HR MIN TEMP:  48; 6HR MAX TEMP:  57;

MESA-GATEWAY   PTCLDY    52   9  17 W5        29.91R
$$

AZZ539-553-200700-
SOUTHWEST MARICOPA COUNTY AND PINAL COUNTY

CITY           SKY/WX    TMP DP  RH WIND       PRES   REMARKS
CASA GRANDE      N/A     52  17  25 W8        29.91R
6HR MIN TEMP:  52; 6HR MAX TEMP:  58;

GILA BEND      FAIR      48  15  26 SW9       29.91R
6HR MIN TEMP:  48; 6HR MAX TEMP:  61;

$$

AZZ503-504-507>509-200700-
SOUTHEAST ARIZONA

CITY           SKY/WX    TMP DP  RH WIND       PRES   REMARKS
TUCSON         MOCLDY    47  40  76 NW3       29.92R
6HR MIN TEMP:  46; 6HR MAX TEMP:  63; 6HR PCP:  0.04;

DAVIS-MONTHAN  CLOUDY    45  39  79 W13       29.90R
6HR MIN TEMP:  45; 6HR MAX TEMP:  61; 6HR PCP:  0.06;

NOGALES        MOCLDY    49  39  68 SW13G23   29.90R
6HR MIN TEMP:  49; 6HR MAX TEMP:  57;

SIERRA VISTA   MOCLDY    47  33  57 W10G22    29.88S
6HR MIN TEMP:  46; 6HR MAX TEMP:  56;

DOUGLAS        CLOUDY    52  38  58 S13G21    29.89R
6HR MIN TEMP:  52; 6HR MAX TEMP:  60;

SAFFORD        CLOUDY    44  32  62 NW29G38   29.85R
6HR MIN TEMP:  44; 6HR MAX TEMP:  66;

$$

AZZ532-200700-
SOUTHWEST ARIZONA

CITY           SKY/WX    TMP DP  RH WIND       PRES   REMARKS
YUMA           CLEAR     48  27  44 NW7       29.96R
6HR MIN TEMP:  48; 6HR MAX TEMP:  62;

$$

CAZ041-043-047-048-061-525>527-560>570-200700-
SOUTHERN CALIFORNIA

CITY           SKY/WX    TMP DP  RH WIND       PRES   REMARKS
DOWNTOWN L.A.  LGT RAIN  49  17  28 NW6       30.02R
6HR MIN TEMP:  49; 6HR MAX TEMP:  54; 6HR PCP: TRACE;

L.A. AIRPORT   CLEAR     50  17  27 N9G17     30.02R
6HR MIN TEMP:  50; 6HR MAX TEMP:  57; 6HR PCP: TRACE;

SAN DIEGO      MOCLDY    52  35  52 NW3       30.02R
6HR MIN TEMP:  52; 6HR MAX TEMP:  58; 6HR PCP: TRACE;

BURBANK        CLEAR     46  19  34 NW9       30.00R
6HR MIN TEMP:  46; 6HR MAX TEMP:  53;

ONTARIO        PTCLDY    44  10  25 CALM      29.97R
6HR MIN TEMP:  44; 6HR MAX TEMP:  52;

RIVERSIDE      CLEAR     43  15  32 S6        29.98R
6HR MIN TEMP:  42; 6HR MAX TEMP:  54;

PALM SPRINGS   CLEAR     49  30  48 VRB6      29.97R
6HR MIN TEMP:  47; 6HR MAX TEMP:  59;

EL CENTRO NAS  CLEAR     50  28  42 W14       29.99R
6HR MIN TEMP:  50; 6HR MAX TEMP:  62; 6HR PCP: TRACE;

IMPERIAL       CLEAR     49  30  48 W8        29.96R
6HR MIN TEMP:  49; 6HR MAX TEMP:  62;

BLYTHE         PTCLDY    48   9  20 NW7       29.94R
6HR MIN TEMP:  48; 6HR MAX TEMP:  62;

NEEDLES        CLEAR     46  13  26 NW6       29.93R
6HR MIN TEMP:  46; 6HR MAX TEMP:  58;

$$

NVZ020-UTZ003-200700-
SOUTHERN NEVADA-UTAH

CITY           SKY/WX    TMP DP  RH WIND       PRES   REMARKS
LAS VEGAS      CLEAR     42   3  19 NW17G29   29.91R
6HR MIN TEMP:  42; 6HR MAX TEMP:  51;

SALT LAKE CITY LGT SNOW  25  21  85 W10       29.80R FOG     WCI  15
6HR MIN TEMP:  22; 6HR MAX TEMP:  29; 6HR PCP:  0.01;

$$

NMZ009-TXZ055-200700-
NEW MEXICO-WEST TEXAS

CITY           SKY/WX    TMP DP  RH WIND       PRES   REMARKS
ALBUQUERQUE    LGT RAIN  45  32  60 W15       29.70R
6HR MIN TEMP:  45; 6HR MAX TEMP:  56; 6HR PCP:  0.02;

EL PASO        PTCLDY    58  35  42 W25G37    29.81R
6HR MIN TEMP:  57; 6HR MAX TEMP:  67;

$$


........................KEY........................
SKY/WX - SKY CONDITION/WEATHER
TMP    - TEMPERATURE IN FAHRENHEIT
DP     - DEW POINT IN FAHRENHEIT
RH     - RELATIVE HUMIDITY IN PERCENT
WIND   - DIRECTION AND SPEED IN MILES PER HOUR (MPH)
VRB    - VARIABLE WIND DIRECTION
PRES   - MEAN SEA LEVEL PRESSURE IN INCHES OF MERCURY
         F - FALLING PRESSURE   R - RISING PRESSURE
         S - STEADY PRESSURE
VSB    - VISIBILITY IN MILES
HX     - HEAT INDEX IN FAHRENHEIT
WCI    - WIND CHILL INDEX IN FAHRENHEIT
TC     - TEMPERATURE IN CELSIUS WHICH IS ALSO KNOWN AS
         TEMPERATURE IN CENTIGRADE
AFB    - AIR FORCE BASE
         LUKE AFB IS LUKE AIR FORCE BASE
         DAVIS-MONTHAN IS DAVIS-MONTHAN AIR FORCE BASE
NAS    - NAVAL AIR STATION
         EL CENTRO NAS IS EL CENTRO NAVAL AIR STATION
N/A    - NOT AVAILABLE





USA.gov is the U.S. government's official web portal to all federal, state and local government web resources and services.